Location: The C. Gantt Observatory
(33.6981°N, 81.6836°W)
Time: 08:54:59
(UTC-04:00)

Iridium 30 - Visible Passes

Search period start: 24 July 2016 00:00
Search period end: 03 August 2016 00:00
Orbit: 776 x 779 km, 86.4° (Epoch: 23 July)

Date Brightness Start Highest point End Pass type
(mag) Time Alt. Az. Time Alt. Az. Time Alt. Az.
24 Jul 7.9 22:16:55 10° NW 22:20:46 21° W 22:24:36 10° SW visible
25 Jul 6.9 21:42:36 10° NNW 21:47:27 41° W 21:52:18 10° SSW visible
26 Jul 5.7 21:08:48 10° N 21:14:02 81° W 21:19:14 10° S visible
27 Jul 8.3 22:18:01 10° NW 22:20:40 14° W 22:23:18 10° WSW visible
28 Jul 7.6 21:43:05 10° NNW 21:47:25 27° W 21:51:46 10° SW visible
29 Jul 6.4 21:09:00 10° NNW 21:14:04 53° W 21:19:07 10° SSW visible
31 Jul 8.3 21:43:50 10° NW 21:47:21 19° W 21:50:52 10° SW visible
01 Aug 7.3 21:09:21 10° NNW 21:14:04 35° W 21:18:46 10° SSW visible
